Regional Weather Roundup
Issued by NWS

Home | Current Version | Previous Version | Graphics & Text | Print | Product List | Glossary On
Versions: 1 2 3 4 5 6 7 8 9 10 11 12 13 14 15 16 17 18 19 20 21 22 23 24 25 26 27 28 29 30 31 32 33 34 35 36 37 38 39 40 41 42 43 44 45 46 47 48 49 50
000
ASUS43 KDMX 270001
RWRIA

WEATHER ROUNDUP FOR IOWA
NATIONAL WEATHER SERVICE DES MOINES IA
700 PM CDT WED APR 26 2017

NOTE: "FAIR" INDICATES FEW OR NO CLOUDS BELOW 12,000 FEET WITH NO
SIGNIFICANT WEATHER AND/OR OBSTRUCTIONS TO VISIBILITY.

* - THESE STATIONS ARE NOT NWS STATIONS...THUS NOT UNDER NWS
QUALITY CONTROL.  THEY ALSO DO NOT REPORT WEATHER SUCH
AS PRECIPITATION OR FOG.

IAZ001>003-012>014-020>022-031>034-043>046-270100-
   NORTHWEST IOWA

CITY           SKY/WX    TMP DP  RH WIND       PRES   REMARKS
CARROLL *      CLOUDY    41  36  81 NW21G26   29.61S
CHEROKEE *     CLOUDY    37  33  85 NW13G18   29.65R WCI  29
DENISON *      CLOUDY    39  34  81 NW17      29.64F WCI  30
LE MARS *      CLOUDY    39  32  75 N12G20    29.66F WCI  32
ORANGE CITY *  CLOUDY    37  34  87 NW14      29.64F WCI  29
SHELDON *      CLOUDY    36  30  80 NW21      29.62F WCI  24
SIOUX CITY     CLOUDY    41  32  70 NW23G29   29.65S
6HR MIN TEMP:  38; 6HR MAX TEMP:  42;

SPENCER        CLOUDY    37  32  82 N15       29.63R WCI  28
6HR MIN TEMP:  37; 6HR MAX TEMP:  41;

STORM LAKE *     N/A     37  32  81 NW17G23   29.63R WCI  28
$$

IAZ055>058-069>071-079>083-090>094-270100-
   SOUTHWEST IOWA

CITY           SKY/WX    TMP DP  RH WIND       PRES   REMARKS
ATLANTIC *     CLOUDY    41  34  75 N17G24    29.62S
AUDUBON *      CLOUDY    39  36  87 NW14G21   29.62F WCI  31
CLARINDA *     CLOUDY    45  34  65 N14G22    29.66R
COUNCIL BLFS *   N/A     41  34  75 NW18G24   29.64S
CRESTON *      CLOUDY    41  36  81 NW16      29.62R
HARLAN  *      CLOUDY    43  36  75 NW14G23   29.66S
LAMONI         CLOUDY    45  38  76 N14       29.58F
6HR MIN TEMP:  45; 6HR MAX TEMP:  49;

RED OAK *      CLOUDY    43  34  70 NW10G21   29.64R
SHENANDOAH *   CLOUDY    45  34  65 NW14G20   29.65R
$$

IAZ047>049-059>061-072>074-084-270100-
   CENTRAL IOWA

CITY           SKY/WX    TMP DP  RH WIND       PRES   REMARKS
AMES           CLOUDY    44  38  79 NW15      29.58S
6HR MIN TEMP:  44; 6HR MAX TEMP:  49;

ANKENY *       CLOUDY    45  37  76 NW12      29.61R
BOONE *        CLOUDY    43  37  81 NW14G22   29.58S
CHARITON *     CLOUDY    45  39  81 NW14G21   29.57S
DES MOINES     CLOUDY    46  37  71 NW15      29.60R
6HR MIN TEMP:  46; 6HR MAX TEMP:  50;

GRINNELL*      CLOUDY    46  39  78 NW15      29.57S
KNOXVILLE *    CLOUDY    46  39  76 NW14      29.54F
MARSHALLTOWN   CLOUDY    45  38  76 NW12      29.56S
6HR MIN TEMP:  45; 6HR MAX TEMP:  50;

NEWTON *       CLOUDY    46  37  71 NW14      29.57R
PELLA *        CLOUDY    47  40  74 NW9       29.57S
PERRY *        CLOUDY    42  37  80 NW16      29.61R
$$

IAZ004>006-015-016-023>025-035-036-270100-
   NORTH CENTRAL IOWA

CITY           SKY/WX    TMP DP  RH WIND       PRES   REMARKS
ALGONA *       LGT RAIN  37  37 100 NW17G24   29.60R WCI  28
CLARION *      CLOUDY    41  39  93 NW17G23   29.58R
ESTHERVILLE    CLOUDY    35  33  92 NW15      29.62R WCI  25
6HR MIN TEMP:  35; 6HR MAX TEMP:  40;

FORT DODGE *   CLOUDY    41  32  70 NW12G20   29.60S
MASON CITY     CLOUDY    40  35  83 NW16      29.57S WCI  31
6HR MIN TEMP:  40; 6HR MAX TEMP:  44;

FOREST CITY *  CLOUDY    41  32  70 N15       29.57S
WEBSTER CITY * CLOUDY    41  36  81 NW18      29.56F
IOWA FALLS *   CLOUDY    43  37  77 NW15      29.57S
$$

IAZ007>011-017>019-026>030-037>042-050>054-066-270100-
   NORTHEAST IOWA

CITY           SKY/WX    TMP DP  RH WIND       PRES   REMARKS
CEDAR RAPIDS   CLOUDY    47  42  83 NW15      29.52F
6HR MIN TEMP:  47; 6HR MAX TEMP:  50; 6HR PCP: TRACE;

CHARLES CITY * CLOUDY    43  39  87 NW15G22   29.55R
CLINTON *      CLOUDY    51  46  83 W14       29.51S
DECORAH *      CLOUDY    43  39  87 NW8G14    29.52R
DUBUQUE        CLOUDY    48  43  82 W9        29.52R
6HR MIN TEMP:  48; 6HR MAX TEMP:  51;

MONTICELLO *   CLOUDY    48  43  81 NW13      29.52F
OELWEIN *      CLOUDY    45  41  87 NW14      29.54S
WATERLOO       CLOUDY    45  37  73 NW15      29.54S
6HR MIN TEMP:  45; 6HR MAX TEMP:  47;

$$

IAZ064-065-067-068-078-270100-
   EAST CENTRAL IOWA

CITY           SKY/WX    TMP DP  RH WIND       PRES   REMARKS
DAVENPORT      LGT RAIN  50  46  86 W10       29.52S
6HR MIN TEMP:  50; 6HR MAX TEMP:  53; 6HR PCP: TRACE;

IOWA CITY      CLOUDY    51  41  68 NW10      29.54F
6HR MIN TEMP:  50; 6HR MAX TEMP:  52; 6HR PCP: TRACE;

MUSCATINE *    LGT RAIN  52  45  76 NW10      29.52F
QUAD CITIES    LGT RAIN  51  46  83 W9        29.51S
6HR MIN TEMP:  51; 6HR MAX TEMP:  55; 6HR PCP: TRACE;

$$

IAZ062-063-075>077-085>089-095>099-270100-
   SOUTHEAST IOWA

CITY           SKY/WX    TMP DP  RH WIND       PRES   REMARKS
BURLINGTON     CLOUDY    49  47  93 NW9       29.51F
6HR MIN TEMP:  49; 6HR MAX TEMP:  51; 6HR PCP:  0.01;

FAIRFIELD *    CLOUDY    50  45  81 N8        29.52F
FORT MADISON * CLOUDY    48  46  93 NW8       29.52F FOG
KEOKUK *       CLOUDY    48  46  93 N8G14     29.51F
OSKALOOSA *    LGT RAIN  47  41  78 NW16      29.54F
OTTUMWA        LGT RAIN  48  43  82 NW13      29.53F
6HR MIN TEMP:  47; 6HR MAX TEMP:  51; 6HR PCP: TRACE;

WASHINGTON *   CLOUDY    50  45  81 NW12      29.53F
$$

ABBREVIATIONS USED IN REMARKS
   TC - TEMPERATURES IN CELSIUS
  WCI - WIND CHILL INDEX
   HX - HEAT INDEX
  VSB - VISIBILITY
$$





USA.gov is the U.S. government's official web portal to all federal, state and local government web resources and services.